K7JKM Weather Reports


time (UTC)temp
C
wind
direction
speed
KPH
gust
KPH
rain 1hr
cm
rain 24hr
cm
rain mn
cm
humidity
%
barometer
mb
20260503211509 30 297 0.0 3.2 0.00 0.00 0.00 29 1009.6
20260503210024 29 172 0.0 4.8 0.00 0.00 0.00 32 1009.6
20260503204510 29 66 0.0 1.6 0.00 0.00 0.00 32 1009.8
20260503203014 28 297 0.0 8.0 0.00 0.00 0.00 33 1009.9
20260503201508 28 51 0.0 1.6 0.00 0.00 0.00 34 1010.0
20260503200007 27 340 0.0 1.6 0.00 0.00 0.00 37 1010.2
20260503194512 26 41 0.0 3.2 0.00 0.00 0.00 38 1010.5
20260503193014 25 291 0.0 3.2 0.00 0.00 0.00 42 1010.9
20260503191510 25 307 0.0 3.2 0.00 0.00 0.00 42 1011.0
20260503190012 25 314 0.0 1.6 0.00 0.00 0.00 41 1011.2
20260503184520 25 141 0.0 1.6 0.00 0.00 0.00 44 1011.3
20260503183009 24 61 0.0 1.6 0.00 0.00 0.00 45 1011.5
20260503181514 23 92 0.0 1.6 0.00 0.00 0.00 48 1011.5
20260503180014 22 147 0.0 1.6 0.00 0.00 0.00 53 1011.7
20260503174517 21 70 0.0 3.2 0.00 0.00 0.00 56 1011.9
20260503173016 20 287 0.0 3.2 0.00 0.00 0.00 60 1011.9
20260503171516 20 82 0.0 0.0 0.00 0.00 0.00 63 1011.9
20260503081525 11 335 0.0 0.0 0.00 0.00 0.00 70 1012.9
20260503071536 13 335 0.0 0.0 0.00 0.00 0.00 68 1013.0
20260503054526 13 92 0.0 0.0 0.00 0.00 0.00 67 1013.1
20260503053028 13 92 0.0 0.0 0.00 0.00 0.00 66 1013.1
20260503051527 14 92 0.0 0.0 0.00 0.00 0.00 66 1013.1
20260503050024 15 92 0.0 0.0 0.00 0.00 0.00 65 1013.0
20260503044537 15 92 0.0 0.0 0.00 0.00 0.00 65 1012.9
20260503043022 15 92 0.0 0.0 0.00 0.00 0.00 65 1012.8
20260503041520 16 92 0.0 0.0 0.00 0.00 0.00 64 1012.9
20260503040006 16 68 0.0 0.0 0.00 0.00 0.00 63 1012.8
20260503034503 16 68 0.0 0.0 0.00 0.00 0.00 62 1012.5
20260503033011 17 67 0.0 0.0 0.00 0.00 0.00 61 1012.2
20260503031509 17 22 0.0 0.0 0.00 0.00 0.00 60 1012.1
20260503030014 17 22 0.0 0.0 0.00 0.00 0.00 59 1012.1
20260503024505 17 23 0.0 1.6 0.00 0.00 0.00 58 1011.8
20260503023003 17 302 0.0 0.0 0.00 0.00 0.00 57 1011.8
20260503021503 18 122 0.0 0.0 0.00 0.00 0.00 56 1012.2
20260503020003 18 117 0.0 1.6 0.00 0.00 0.00 56 1012.8
20260503014516 18 109 0.0 17.7 0.00 0.00 0.00 56 1013.2
20260503013022 19 110 0.0 1.6 0.00 0.00 0.00 53 1013.3
20260503011509 20 113 0.0 0.0 0.00 0.00 0.00 52 1012.6
20260503010006 20 114 0.0 3.2 0.00 0.00 0.00 51 1012.5
20260503004504 20 139 0.0 0.0 0.00 0.00 0.00 50 1012.4
20260503003003 20 124 0.0 1.6 0.00 0.00 0.00 51 1012.5
20260503001503 20 299 0.0 1.6 0.00 0.00 0.00 49 1012.3
20260503000015 20 331 0.0 0.0 0.00 0.00 0.00 49 1012.2
20260502234515 20 287 0.0 0.0 0.00 0.00 0.00 49 1012.3
20260502233012 20 73 0.0 0.0 0.00 0.00 0.00 51 1012.7
20260502231516 18 77 0.0 1.6 0.00 0.00 0.00 53 1012.9
20260502230008 18 63 0.0 1.6 0.00 0.00 0.00 54 1013.2
20260502224503 18 153 0.0 0.0 0.00 0.00 0.00 53 1013.5
20260502223025 17 287 0.0 1.6 0.00 0.00 0.00 55 1013.7
20260502221524 18 305 0.0 0.0 0.00 0.00 0.00 54 1013.7
20260502220020 18 24 0.0 0.0 0.00 0.00 0.00 53 1013.9
20260502214518 18 70 0.0 0.0 0.00 0.00 0.00 53 1014.0
20260502213015 18 80 0.0 3.2 0.00 0.00 0.00 53 1014.0